This is the latest recevied weather packets stored in our database for station/object N7CEE. If no packets are shown the sender has not sent any weather packets the latest 10 day(s).
| Time | Temp. | Humidity | Pressure | Rain* | Wind** | Luminosity | Snow |
|---|---|---|---|---|---|---|---|
| 1777783457 | 12.22° C | 31% | 1026.1 hPa | 0 mm | - | 0 W/m² | - |
| 1777783154 | 12.22° C | 31% | 1026 hPa | 0 mm | - | 0 W/m² | - |
| 1777782850 | 12.22° C | 32% | 1026.3 hPa | 0 mm | - | 0 W/m² | - |
| 1777782547 | 12.78° C | 32% | 1026.2 hPa | 0 mm | - | 0 W/m² | - |
| 1777782243 | 12.78° C | 31% | 1026 hPa | 0 mm | - | 0 W/m² | - |
| 1777781940 | 12.78° C | 28% | 1026.1 hPa | 0 mm | - | 0 W/m² | - |
| 1777781637 | 12.78° C | 28% | 1025.6 hPa | 0 mm | - | 0 W/m² | - |
| 1777781334 | 12.78° C | 29% | 1026 hPa | 0 mm | - | 0 W/m² | - |
| 1777781032 | 12.78° C | 29% | 1025.7 hPa | 0 mm | - | 0 W/m² | - |
| 1777780728 | 13.33° C | 29% | 1025.8 hPa | 0 mm | - | 0 W/m² | - |
| 1777780426 | 13.33° C | 28% | 1025.5 hPa | 0 mm | - | 0 W/m² | - |
| 1777780123 | 13.33° C | 28% | 1025.6 hPa | 0 mm | - | 0 W/m² | - |
| 1777779820 | 13.33° C | 28% | 1025.5 hPa | 0 mm | - | 0 W/m² | - |
| 1777779517 | 12.78° C | 28% | 1025.5 hPa | 0 mm | - | 0 W/m² | - |
| 1777779215 | 13.33° C | 29% | 1025.5 hPa | 0 mm | - | 0 W/m² | - |
| 1777778913 | 12.78° C | 28% | 1025.3 hPa | 0 mm | - | 0 W/m² | - |
| 1777778611 | 12.78° C | 29% | 1025.2 hPa | 0 mm | - | 0 W/m² | - |
| 1777778308 | 12.22° C | 29% | 1025.3 hPa | 0 mm | - | 0 W/m² | - |
| 1777778006 | 12.78° C | 29% | 1025.2 hPa | 0 mm | - | 0 W/m² | - |
| 1777777702 | 12.78° C | 29% | 1025.1 hPa | 0 mm | - | 0 W/m² | - |
| 1777777399 | 12.78° C | 29% | 1025.1 hPa | 0 mm | - | 0 W/m² | - |
| 1777777096 | 13.33° C | 28% | 1025 hPa | 0 mm | - | 0 W/m² | - |
| 1777776793 | 13.89° C | 28% | 1024.9 hPa | 0 mm | - | 0 W/m² | - |
| 1777776490 | 13.89° C | 27% | 1024.9 hPa | 0 mm | - | 0 W/m² | - |
| 1777776186 | 13.89° C | 27% | 1024.9 hPa | 0 mm | - | 0 W/m² | - |
* Rain latest hour (hover to see other rain measurements)
** Current wind speed in m/s (hover to see current wind gust speed)